JAF5LT EBBR-LICA

Flight info

Callsign JAF5LT
Flight time 2h 6m
Altitude 35000
Route PITES DCT MOPAN DCT RESIA DCT LUMAV DCT TUFTE DCT IPKAM DCT ARBUM
Aircraft B738/M-SDE2E3FGHIRWXY/LB1

Departure

Time 2026-05-09 07:03
Airport Brussels Airport (EBBR)

Arrival

Time 2026-05-09 09:09
Airport Lamezia Terme Sant'Eufemia International Airport (LICA)
Time Latitude Longitude Altitude Speed Heading
2026-05-09 06:29 50.90220 4.48413 117 ft 0 kts 335°
2026-05-09 06:51 50.90217 4.48416 120 ft 3 kts 335°
2026-05-09 06:51 50.90193 4.48433 116 ft 4 kts 337°
2026-05-09 06:51 50.90167 4.48447 119 ft 4 kts 354°
2026-05-09 06:51 50.90148 4.48441 120 ft 3 kts 60°
2026-05-09 06:52 50.90146 4.48437 119 ft 1 kts 65°
2026-05-09 06:56 50.90147 4.48441 120 ft 1 kts 65°
2026-05-09 06:56 50.90156 4.48470 122 ft 5 kts 66°
2026-05-09 06:57 50.90176 4.48539 121 ft 9 kts 65°
2026-05-09 06:57 50.90207 4.48646 123 ft 12 kts 65°
2026-05-09 06:57 50.90245 4.48779 119 ft 14 kts 65°
2026-05-09 06:57 50.90288 4.48931 122 ft 16 kts 64°
2026-05-09 06:58 50.90336 4.49105 123 ft 18 kts 70°
2026-05-09 06:58 50.90390 4.49291 121 ft 19 kts 67°
2026-05-09 06:58 50.90450 4.49491 122 ft 21 kts 66°
2026-05-09 06:58 50.90554 4.49630 123 ft 21 kts 14°
2026-05-09 06:59 50.90704 4.49669 123 ft 22 kts
2026-05-09 06:59 50.90852 4.49753 123 ft 23 kts 14°
2026-05-09 06:59 50.90886 4.49768 119 ft 0 kts 18°
2026-05-09 07:00 50.90898 4.49772 121 ft 4 kts 14°
2026-05-09 07:00 50.90942 4.49806 119 ft 9 kts 41°
2026-05-09 07:00 50.91012 4.49891 117 ft 16 kts 28°
2026-05-09 07:00 50.91119 4.49937 119 ft 15 kts 341°
2026-05-09 07:01 50.91121 4.49829 115 ft 0 kts 248°
2026-05-09 07:01 50.91099 4.49748 117 ft 24 kts 245°
2026-05-09 07:02 50.91046 4.49565 117 ft 0 kts 246°
2026-05-09 07:02 50.90983 4.49349 119 ft 61 kts 245°
2026-05-09 07:02 50.90690 4.48334 119 ft 139 kts 245°
2026-05-09 07:02 50.90214 4.46677 420 ft 175 kts 245°
2026-05-09 07:03 50.89699 4.44948 1503 ft 173 kts 244°
2026-05-09 07:03 50.89118 4.43161 2209 ft 194 kts 231°
2026-05-09 07:03 50.87942 4.41944 2585 ft 217 kts 189°
2026-05-09 07:03 50.86436 4.42214 3042 ft 225 kts 153°
2026-05-09 07:04 50.85246 4.43810 3557 ft 233 kts 122°
2026-05-09 07:04 50.84350 4.45944 4336 ft 233 kts 124°
2026-05-09 07:04 50.83415 4.48051 5040 ft 236 kts 127°
2026-05-09 07:04 50.82437 4.50172 5625 ft 244 kts 126°
2026-05-09 07:05 50.81414 4.52469 5906 ft 271 kts 127°
2026-05-09 07:05 50.80198 4.54828 6588 ft 276 kts 133°
2026-05-09 07:05 50.78917 4.56967 7875 ft 258 kts 137°
2026-05-09 07:05 50.77677 4.59051 8653 ft 268 kts 131°
2026-05-09 07:06 50.76424 4.61393 9008 ft 288 kts 131°
2026-05-09 07:06 50.75144 4.63816 10007 ft 281 kts 131°
2026-05-09 07:06 50.73923 4.66095 11262 ft 263 kts 132°
2026-05-09 07:06 50.72697 4.68263 11982 ft 269 kts 134°
2026-05-09 07:07 50.71392 4.70559 12173 ft 294 kts 133°
2026-05-09 07:07 50.69989 4.73072 12391 ft 317 kts 130°
2026-05-09 07:07 50.68892 4.76215 12576 ft 341 kts 108°
2026-05-09 07:07 50.68260 4.79885 13086 ft 352 kts 106°
2026-05-09 07:08 50.67615 4.83635 13795 ft 356 kts 107°
2026-05-09 07:08 50.66953 4.87365 14468 ft 359 kts 107°
2026-05-09 07:08 50.66115 4.91064 15129 ft 360 kts 120°
2026-05-09 07:08 50.64584 4.94163 15799 ft 360 kts 135°
2026-05-09 07:09 50.62798 4.96963 16469 ft 363 kts 136°
2026-05-09 07:09 50.60971 4.99744 17087 ft 368 kts 137°
2026-05-09 07:09 50.59119 5.02546 17730 ft 371 kts 136°
2026-05-09 07:09 50.57251 5.05381 18384 ft 374 kts 136°
2026-05-09 07:10 50.55376 5.08243 18928 ft 378 kts 136°
2026-05-09 07:10 50.53484 5.11142 19447 ft 382 kts 136°
2026-05-09 07:10 50.51574 5.14077 19991 ft 385 kts 136°
2026-05-09 07:10 50.49650 5.17037 20532 ft 388 kts 136°
2026-05-09 07:11 50.47713 5.20016 21033 ft 392 kts 135°
2026-05-09 07:11 50.45754 5.23027 21499 ft 396 kts 135°
2026-05-09 07:11 50.43773 5.26068 21982 ft 400 kts 135°
2026-05-09 07:11 50.41771 5.29139 22464 ft 404 kts 135°
2026-05-09 07:12 50.39751 5.32232 22930 ft 408 kts 135°
2026-05-09 07:12 50.37736 5.35315 23399 ft 412 kts 135°
2026-05-09 07:12 50.35680 5.38456 23835 ft 415 kts 135°
2026-05-09 07:12 50.33606 5.41620 24231 ft 418 kts 135°
2026-05-09 07:13 50.31517 5.44803 24627 ft 420 kts 135°
2026-05-09 07:13 50.29419 5.47996 25023 ft 422 kts 135°
2026-05-09 07:13 50.27303 5.51210 25416 ft 425 kts 135°
2026-05-09 07:13 50.25174 5.54441 25780 ft 428 kts 135°
2026-05-09 07:14 50.23032 5.57688 26157 ft 431 kts 135°
2026-05-09 07:14 50.20872 5.60959 26519 ft 433 kts 135°
2026-05-09 07:14 50.18700 5.64241 26869 ft 436 kts 135°
2026-05-09 07:14 50.16515 5.67541 27215 ft 438 kts 135°
2026-05-09 07:15 50.14317 5.70856 27588 ft 441 kts 135°
2026-05-09 07:15 50.12105 5.74189 27939 ft 443 kts 135°
2026-05-09 07:15 50.09884 5.77530 28276 ft 445 kts 135°
2026-05-09 07:15 50.07647 5.80888 28595 ft 448 kts 135°
2026-05-09 07:16 50.06157 5.83122 28805 ft 449 kts 135°
2026-05-09 07:16 50.03901 5.86499 29116 ft 452 kts 135°
2026-05-09 07:16 50.01630 5.89896 29425 ft 454 kts 135°
2026-05-09 07:16 49.99344 5.93313 29737 ft 456 kts 135°
2026-05-09 07:17 49.96299 5.97856 30123 ft 460 kts 135°
2026-05-09 07:17 49.93987 6.01301 30367 ft 462 kts 135°
2026-05-09 07:17 49.92416 6.03640 30545 ft 463 kts 135°
2026-05-09 07:17 49.89344 6.08207 31018 ft 462 kts 135°
2026-05-09 07:18 49.87807 6.10488 31280 ft 460 kts 135°
2026-05-09 07:18 49.85624 6.14190 31612 ft 458 kts 123°
2026-05-09 07:18 49.84080 6.18498 31914 ft 457 kts 115°
2026-05-09 07:18 49.82677 6.22833 32237 ft 456 kts 115°
2026-05-09 07:19 49.81250 6.27224 32530 ft 457 kts 116°
2026-05-09 07:19 49.79802 6.31590 32837 ft 456 kts 116°
2026-05-09 07:19 49.78332 6.35944 33168 ft 455 kts 116°
2026-05-09 07:19 49.76854 6.40276 33482 ft 455 kts 116°
2026-05-09 07:20 49.75372 6.44602 33777 ft 455 kts 116°
2026-05-09 07:20 49.73891 6.48910 34050 ft 455 kts 118°
2026-05-09 07:20 49.72049 6.52876 34229 ft 459 kts 135°
2026-05-09 07:20 49.69571 6.56023 34412 ft 460 kts 142°
2026-05-09 07:21 49.66984 6.58947 34660 ft 460 kts 143°
2026-05-09 07:21 49.64421 6.61781 34870 ft 460 kts 144°
2026-05-09 07:21 49.61818 6.64656 35065 ft 460 kts 144°
2026-05-09 07:21 49.59213 6.67552 35089 ft 464 kts 143°
2026-05-09 07:22 49.53990 6.73423 35082 ft 464 kts 143°
2026-05-09 07:22 49.48825 6.79268 35084 ft 459 kts 143°
2026-05-09 07:23 49.43685 6.85082 35098 ft 458 kts 143°
2026-05-09 07:23 49.38549 6.90873 35097 ft 458 kts 143°
2026-05-09 07:24 49.33407 6.96653 35100 ft 458 kts 143°
2026-05-09 07:24 49.28257 7.02427 35103 ft 459 kts 143°
2026-05-09 07:25 49.23089 7.08204 35106 ft 461 kts 144°
2026-05-09 07:25 49.17929 7.13958 35107 ft 462 kts 144°
2026-05-09 07:26 49.12719 7.19753 35107 ft 464 kts 144°
2026-05-09 07:26 49.07493 7.25549 35105 ft 465 kts 144°
2026-05-09 07:27 49.02243 7.31357 35102 ft 466 kts 144°
2026-05-09 07:27 48.96978 7.37165 35097 ft 467 kts 144°
2026-05-09 07:28 48.91712 7.42959 35098 ft 468 kts 144°
2026-05-09 07:28 48.86438 7.48746 35106 ft 468 kts 144°
2026-05-09 07:29 48.81151 7.54534 35109 ft 468 kts 144°
2026-05-09 07:29 48.75899 7.60266 35114 ft 468 kts 144°
2026-05-09 07:30 48.70612 7.66023 35125 ft 467 kts 145°
2026-05-09 07:30 48.65320 7.71769 35125 ft 467 kts 145°
2026-05-09 07:31 48.60039 7.77488 35128 ft 467 kts 145°
2026-05-09 07:31 48.54793 7.83155 35126 ft 467 kts 145°
2026-05-09 07:32 48.49505 7.88852 35100 ft 467 kts 146°
2026-05-09 07:32 48.44213 7.94540 35104 ft 467 kts 146°
2026-05-09 07:33 48.36282 8.03035 35102 ft 467 kts 146°
2026-05-09 07:34 48.30979 8.08699 35101 ft 468 kts 146°
2026-05-09 07:34 48.25667 8.14357 35102 ft 468 kts 146°
2026-05-09 07:35 48.20390 8.20087 35089 ft 469 kts 145°
2026-05-09 07:35 48.15162 8.25926 35094 ft 468 kts 145°
2026-05-09 07:36 48.09945 8.31746 35090 ft 468 kts 145°
2026-05-09 07:36 48.04737 8.37517 35096 ft 468 kts 146°
2026-05-09 07:37 47.99504 8.43288 35104 ft 467 kts 146°
2026-05-09 07:37 47.94273 8.49039 35100 ft 467 kts 146°
2026-05-09 07:38 47.89041 8.54776 35100 ft 466 kts 146°
2026-05-09 07:38 47.83814 8.60494 35102 ft 466 kts 146°
2026-05-09 07:39 47.78623 8.66157 35105 ft 465 kts 147°
2026-05-09 07:39 47.73407 8.71835 35110 ft 465 kts 147°
2026-05-09 07:40 47.68187 8.77502 35118 ft 465 kts 147°
2026-05-09 07:40 47.62929 8.83195 35115 ft 464 kts 147°
2026-05-09 07:41 47.57744 8.88795 35113 ft 464 kts 147°
2026-05-09 07:41 47.52521 8.94423 35128 ft 464 kts 147°
2026-05-09 07:42 47.47297 9.00037 35115 ft 464 kts 147°
2026-05-09 07:42 47.42066 9.05645 35110 ft 464 kts 147°
2026-05-09 07:43 47.36851 9.11221 35102 ft 464 kts 147°
2026-05-09 07:43 47.31580 9.16844 35108 ft 464 kts 147°
2026-05-09 07:44 47.26378 9.22379 35098 ft 464 kts 147°
2026-05-09 07:44 47.21140 9.27938 35113 ft 464 kts 147°
2026-05-09 07:45 47.15908 9.33477 35102 ft 463 kts 147°
2026-05-09 07:45 47.10690 9.38989 35106 ft 463 kts 147°
2026-05-09 07:46 47.05447 9.44512 35110 ft 462 kts 147°
2026-05-09 07:46 47.00223 9.50002 35106 ft 461 kts 147°
2026-05-09 07:47 46.95016 9.55461 35111 ft 459 kts 147°
2026-05-09 07:47 46.89851 9.60863 35133 ft 459 kts 147°
2026-05-09 07:48 46.84649 9.66289 35136 ft 459 kts 147°
2026-05-09 07:48 46.79447 9.71703 35154 ft 458 kts 147°
2026-05-09 07:49 46.74254 9.77095 35164 ft 458 kts 148°
2026-05-09 07:49 46.69064 9.82471 35171 ft 458 kts 148°
2026-05-09 07:50 46.63911 9.87796 35180 ft 457 kts 148°
2026-05-09 07:50 46.58720 9.93146 35186 ft 457 kts 148°
2026-05-09 07:51 46.53538 9.98478 35186 ft 457 kts 148°
2026-05-09 07:51 46.48339 10.03812 35184 ft 457 kts 148°
2026-05-09 07:52 46.43097 10.09042 35178 ft 457 kts 149°
2026-05-09 07:52 46.37815 10.14165 35173 ft 457 kts 150°
2026-05-09 07:53 46.32521 10.19292 35169 ft 457 kts 150°
2026-05-09 07:53 46.27240 10.24418 35164 ft 457 kts 150°
2026-05-09 07:54 46.21957 10.29544 35165 ft 458 kts 150°
2026-05-09 07:54 46.16667 10.34666 35163 ft 458 kts 150°
2026-05-09 07:55 46.11368 10.39783 35140 ft 458 kts 150°
2026-05-09 07:55 46.06094 10.44865 35157 ft 459 kts 150°
2026-05-09 07:56 46.00768 10.49985 35134 ft 460 kts 150°
2026-05-09 07:56 45.95434 10.55100 35125 ft 462 kts 150°
2026-05-09 07:57 45.90075 10.60227 35127 ft 463 kts 151°
2026-05-09 07:57 45.84699 10.65357 35125 ft 464 kts 151°
2026-05-09 07:58 45.79323 10.70476 35110 ft 464 kts 151°
2026-05-09 07:58 45.73937 10.75594 35096 ft 465 kts 151°
2026-05-09 07:59 45.68571 10.80679 35109 ft 466 kts 151°
2026-05-09 07:59 45.63162 10.85793 35107 ft 466 kts 151°
2026-05-09 08:00 45.57750 10.90900 35070 ft 465 kts 152°
2026-05-09 08:00 45.52348 10.95984 35107 ft 466 kts 152°
2026-05-09 08:01 45.46917 11.01081 35099 ft 468 kts 152°
2026-05-09 08:01 45.41457 11.06195 35105 ft 470 kts 152°
2026-05-09 08:02 45.36008 11.11286 35102 ft 473 kts 152°
2026-05-09 08:02 45.30490 11.16430 35106 ft 475 kts 152°
2026-05-09 08:03 45.24942 11.21591 35105 ft 477 kts 153°
2026-05-09 08:03 45.19369 11.26762 35107 ft 479 kts 153°
2026-05-09 08:04 45.13775 11.31941 35111 ft 481 kts 153°
2026-05-09 08:04 45.08163 11.37124 35116 ft 482 kts 153°
2026-05-09 08:05 45.02586 11.42266 35091 ft 477 kts 153°
2026-05-09 08:05 44.97933 11.46544 35097 ft 484 kts 153°
2026-05-09 08:06 44.91310 11.52612 35104 ft 491 kts 153°
2026-05-09 08:06 44.85564 11.57874 35105 ft 494 kts 153°
2026-05-09 08:07 44.80721 11.62296 35104 ft 496 kts 154°
2026-05-09 08:07 44.74918 11.67553 35102 ft 496 kts 154°
2026-05-09 08:08 44.69144 11.72762 35097 ft 495 kts 154°
2026-05-09 08:08 44.63352 11.77978 35100 ft 494 kts 154°
2026-05-09 08:09 44.57568 11.83177 35105 ft 493 kts 154°
2026-05-09 08:09 44.51796 11.88355 35113 ft 492 kts 154°
2026-05-09 08:10 44.46019 11.93524 35111 ft 492 kts 154°
2026-05-09 08:10 44.40257 11.98667 35122 ft 491 kts 154°
2026-05-09 08:11 44.34482 12.03809 35129 ft 492 kts 155°
2026-05-09 08:11 44.28704 12.08941 35134 ft 493 kts 155°
2026-05-09 08:12 44.20010 12.16642 35132 ft 494 kts 155°
2026-05-09 08:12 44.14227 12.21749 35127 ft 496 kts 155°
2026-05-09 08:13 44.08394 12.26888 35132 ft 497 kts 155°
2026-05-09 08:13 44.02534 12.32039 35124 ft 498 kts 155°
2026-05-09 08:14 43.96678 12.37175 35107 ft 498 kts 155°
2026-05-09 08:14 43.90814 12.42307 35094 ft 498 kts 155°
2026-05-09 08:15 43.84959 12.47419 35072 ft 496 kts 155°
2026-05-09 08:15 43.79125 12.52499 35103 ft 495 kts 155°
2026-05-09 08:16 43.73335 12.57529 35115 ft 494 kts 155°
2026-05-09 08:16 43.67500 12.62585 35113 ft 495 kts 155°
2026-05-09 08:17 43.61653 12.67640 35105 ft 496 kts 155°
2026-05-09 08:17 43.55795 12.72694 35112 ft 497 kts 155°
2026-05-09 08:18 43.49919 12.77751 35111 ft 497 kts 155°
2026-05-09 08:18 43.44045 12.82795 35097 ft 498 kts 155°
2026-05-09 08:19 43.38174 12.87826 35110 ft 497 kts 155°
2026-05-09 08:19 43.32292 12.92853 35103 ft 497 kts 155°
2026-05-09 08:20 43.26414 12.97867 35108 ft 497 kts 155°
2026-05-09 08:20 43.20533 13.02871 35101 ft 497 kts 155°
2026-05-09 08:21 43.14666 13.07851 35115 ft 496 kts 155°
2026-05-09 08:21 43.08796 13.12822 35124 ft 496 kts 155°
2026-05-09 08:22 43.02956 13.17756 35108 ft 497 kts 155°
2026-05-09 08:22 42.97069 13.22720 35118 ft 497 kts 155°
2026-05-09 08:23 42.91168 13.27683 35130 ft 498 kts 155°
2026-05-09 08:23 42.85256 13.32645 35100 ft 498 kts 155°
2026-05-09 08:24 42.79366 13.37580 35130 ft 497 kts 155°
2026-05-09 08:24 42.73472 13.42507 35116 ft 495 kts 155°
2026-05-09 08:25 42.67605 13.47396 35106 ft 493 kts 156°
2026-05-09 08:25 42.61762 13.52179 35107 ft 489 kts 156°
2026-05-09 08:26 42.55931 13.56903 35109 ft 487 kts 156°
2026-05-09 08:26 42.50146 13.61584 35112 ft 488 kts 156°
2026-05-09 08:27 42.44302 13.66312 35116 ft 490 kts 156°
2026-05-09 08:27 42.38438 13.71051 35115 ft 491 kts 156°
2026-05-09 08:28 42.32556 13.75795 35109 ft 493 kts 156°
2026-05-09 08:28 42.26658 13.80542 35113 ft 494 kts 156°
2026-05-09 08:29 42.20734 13.85298 35119 ft 497 kts 156°
2026-05-09 08:29 42.14779 13.90069 35113 ft 498 kts 156°
2026-05-09 08:30 42.08808 13.94844 35108 ft 499 kts 156°
2026-05-09 08:30 42.02836 13.99609 35108 ft 498 kts 156°
2026-05-09 08:31 41.96884 14.04348 35102 ft 496 kts 156°
2026-05-09 08:31 41.90988 14.09031 35110 ft 494 kts 156°
2026-05-09 08:32 41.85077 14.13714 35099 ft 493 kts 156°
2026-05-09 08:33 41.76251 14.20690 35113 ft 489 kts 156°
2026-05-09 08:33 41.70387 14.25312 35109 ft 488 kts 156°
2026-05-09 08:34 41.64537 14.29911 35099 ft 487 kts 156°
2026-05-09 08:34 41.58696 14.34494 35098 ft 486 kts 156°
2026-05-09 08:35 41.52846 14.39074 35105 ft 488 kts 156°
2026-05-09 08:35 41.46976 14.43660 35112 ft 490 kts 156°
2026-05-09 08:36 41.41073 14.48263 35112 ft 492 kts 156°
2026-05-09 08:36 41.35147 14.52876 35116 ft 494 kts 156°
2026-05-09 08:37 41.29201 14.57494 35103 ft 496 kts 156°
2026-05-09 08:37 41.23268 14.62094 35099 ft 497 kts 156°
2026-05-09 08:38 41.17261 14.66586 35098 ft 493 kts 161°
2026-05-09 08:38 41.11082 14.70451 35089 ft 489 kts 163°
2026-05-09 08:38 41.07990 14.72311 34825 ft 486 kts 163°
2026-05-09 08:39 41.04928 14.74155 34584 ft 480 kts 163°
2026-05-09 08:39 41.01911 14.75984 34345 ft 474 kts 163°
2026-05-09 08:39 40.98926 14.77805 34103 ft 470 kts 163°
2026-05-09 08:39 40.95967 14.79617 33836 ft 467 kts 163°
2026-05-09 08:40 40.93026 14.81421 33548 ft 464 kts 163°
2026-05-09 08:40 40.90099 14.83218 33282 ft 462 kts 163°
2026-05-09 08:40 40.87192 14.85002 33017 ft 460 kts 163°
2026-05-09 08:40 40.84287 14.86783 32755 ft 459 kts 163°
2026-05-09 08:41 40.81391 14.88557 32463 ft 457 kts 162°
2026-05-09 08:41 40.78514 14.90317 32190 ft 454 kts 162°
2026-05-09 08:41 40.75687 14.92046 31966 ft 453 kts 162°
2026-05-09 08:41 40.72816 14.93798 31713 ft 453 kts 162°
2026-05-09 08:42 40.69950 14.95546 31468 ft 454 kts 162°
2026-05-09 08:42 40.67081 14.97294 31214 ft 454 kts 162°
2026-05-09 08:42 40.64213 14.99041 30976 ft 454 kts 162°
2026-05-09 08:42 40.61351 15.00782 30743 ft 453 kts 162°
2026-05-09 08:43 40.58484 15.02526 30496 ft 453 kts 162°
2026-05-09 08:43 40.55628 15.04262 30263 ft 452 kts 161°
2026-05-09 08:43 40.52781 15.05991 30006 ft 450 kts 161°
2026-05-09 08:43 40.49942 15.07713 29728 ft 448 kts 161°
2026-05-09 08:44 40.47155 15.09403 29454 ft 445 kts 161°
2026-05-09 08:44 40.44350 15.11102 29186 ft 442 kts 161°
2026-05-09 08:44 40.41561 15.12788 28910 ft 440 kts 161°
2026-05-09 08:44 40.38791 15.14462 28649 ft 437 kts 161°
2026-05-09 08:45 40.36032 15.16128 28387 ft 434 kts 161°
2026-05-09 08:45 40.33295 15.17779 28120 ft 431 kts 162°
2026-05-09 08:45 40.30580 15.19415 27855 ft 429 kts 162°
2026-05-09 08:45 40.27901 15.21026 27618 ft 426 kts 162°
2026-05-09 08:46 40.25206 15.22646 27343 ft 424 kts 162°
2026-05-09 08:46 40.22526 15.24255 27096 ft 422 kts 162°
2026-05-09 08:46 40.19863 15.25854 26845 ft 420 kts 162°
2026-05-09 08:46 40.17207 15.27446 26602 ft 419 kts 162°
2026-05-09 08:47 40.14565 15.29030 26339 ft 417 kts 162°
2026-05-09 08:47 40.11934 15.30605 26096 ft 415 kts 162°
2026-05-09 08:47 40.09314 15.32172 25856 ft 413 kts 162°
2026-05-09 08:47 40.06705 15.33732 25601 ft 412 kts 162°
2026-05-09 08:48 40.04109 15.35282 25380 ft 410 kts 162°
2026-05-09 08:48 40.01517 15.36828 25138 ft 409 kts 162°
2026-05-09 08:48 39.98931 15.38369 24903 ft 408 kts 162°
2026-05-09 08:48 39.96359 15.39902 24667 ft 406 kts 162°
2026-05-09 08:49 39.93793 15.41429 24437 ft 405 kts 162°
2026-05-09 08:49 39.91235 15.42951 24210 ft 403 kts 162°
2026-05-09 08:49 39.88719 15.44446 23982 ft 402 kts 162°
2026-05-09 08:49 39.86178 15.45955 23758 ft 400 kts 162°
2026-05-09 08:50 39.83648 15.47455 23506 ft 399 kts 162°
2026-05-09 08:50 39.81124 15.48951 23236 ft 398 kts 162°
2026-05-09 08:50 39.78608 15.50441 22961 ft 396 kts 162°
2026-05-09 08:50 39.76097 15.51927 22692 ft 395 kts 161°
2026-05-09 08:51 39.74441 15.52907 22528 ft 394 kts 161°
2026-05-09 08:51 39.71106 15.54877 22180 ft 393 kts 161°
2026-05-09 08:51 39.69462 15.55848 22009 ft 392 kts 161°
2026-05-09 08:51 39.66985 15.57310 21754 ft 391 kts 161°
2026-05-09 08:52 39.63677 15.59260 21415 ft 389 kts 161°
2026-05-09 08:52 39.62049 15.60220 21247 ft 388 kts 161°
2026-05-09 08:52 39.59591 15.61667 20999 ft 387 kts 161°
2026-05-09 08:52 39.57138 15.63109 20752 ft 386 kts 161°
2026-05-09 08:53 39.54695 15.64545 20507 ft 385 kts 161°
2026-05-09 08:53 39.52250 15.65982 20264 ft 384 kts 161°
2026-05-09 08:53 39.49823 15.67406 20027 ft 383 kts 161°
2026-05-09 08:53 39.47401 15.68827 19783 ft 382 kts 160°
2026-05-09 08:54 39.44991 15.70240 19538 ft 379 kts 160°
2026-05-09 08:54 39.42635 15.71620 19252 ft 376 kts 160°
2026-05-09 08:54 39.40255 15.73013 18884 ft 375 kts 160°
2026-05-09 08:54 39.37881 15.74401 18539 ft 374 kts 160°
2026-05-09 08:55 39.35518 15.75781 18186 ft 371 kts 160°
2026-05-09 08:55 39.33209 15.77133 18034 ft 359 kts 160°
2026-05-09 08:55 39.30955 15.78450 17668 ft 353 kts 160°
2026-05-09 08:55 39.28718 15.79761 17200 ft 353 kts 158°
2026-05-09 08:56 39.26632 15.81444 16747 ft 356 kts 143°
2026-05-09 08:56 39.24771 15.83521 16376 ft 352 kts 141°
2026-05-09 08:56 39.22928 15.85603 15987 ft 349 kts 141°
2026-05-09 08:56 39.21091 15.87640 15588 ft 347 kts 142°
2026-05-09 08:57 39.19284 15.89693 15044 ft 349 kts 139°
2026-05-09 08:57 39.17497 15.91922 14032 ft 367 kts 137°
2026-05-09 08:57 39.15662 15.94299 13042 ft 379 kts 136°
2026-05-09 08:57 39.13806 15.96723 12390 ft 379 kts 136°
2026-05-09 08:58 39.11991 15.99085 11891 ft 373 kts 136°
2026-05-09 08:58 39.10177 16.01430 11383 ft 368 kts 136°
2026-05-09 08:58 39.08368 16.03753 10848 ft 364 kts 136°
2026-05-09 08:58 39.06579 16.06042 10315 ft 361 kts 136°
2026-05-09 08:59 39.04811 16.08298 9728 ft 355 kts 136°
2026-05-09 08:59 39.03066 16.10521 9096 ft 351 kts 136°
2026-05-09 08:59 39.01343 16.12714 8497 ft 346 kts 136°
2026-05-09 08:59 38.99644 16.14877 7900 ft 341 kts 136°
2026-05-09 09:00 38.97987 16.16985 7647 ft 326 kts 135°
2026-05-09 09:00 38.96399 16.19001 7290 ft 316 kts 135°
2026-05-09 09:00 38.94857 16.20957 6905 ft 309 kts 135°
2026-05-09 09:00 38.93325 16.22898 6330 ft 309 kts 134°
2026-05-09 09:01 38.91813 16.24814 5935 ft 302 kts 135°
2026-05-09 09:01 38.90362 16.26731 5514 ft 296 kts 126°
2026-05-09 09:01 38.89315 16.28958 5117 ft 289 kts 117°
2026-05-09 09:01 38.88395 16.31215 4761 ft 283 kts 112°
2026-05-09 09:02 38.87876 16.33642 4445 ft 282 kts 104°
2026-05-09 09:02 38.87007 16.35904 4117 ft 284 kts 120°
2026-05-09 09:02 38.86008 16.38091 3790 ft 282 kts 119°
2026-05-09 09:02 38.85059 16.40225 3524 ft 277 kts 120°
2026-05-09 09:03 38.84144 16.42319 3442 ft 260 kts 119°
2026-05-09 09:03 38.83285 16.44294 3379 ft 247 kts 120°
2026-05-09 09:03 38.82479 16.46169 3333 ft 233 kts 119°
2026-05-09 09:03 38.81723 16.47949 3304 ft 224 kts 116°
2026-05-09 09:04 38.81522 16.49866 3218 ft 218 kts 71°
2026-05-09 09:04 38.82346 16.51385 3155 ft 208 kts 28°
2026-05-09 09:04 38.83708 16.51729 3034 ft 199 kts 341°
2026-05-09 09:04 38.84773 16.50750 3003 ft 189 kts 302°
2026-05-09 09:05 38.85487 16.49347 2989 ft 188 kts 302°
2026-05-09 09:05 38.86113 16.47887 3017 ft 188 kts 297°
2026-05-09 09:05 38.86711 16.46332 3017 ft 199 kts 296°
2026-05-09 09:05 38.87338 16.44729 2942 ft 202 kts 296°
2026-05-09 09:06 38.87974 16.43120 2762 ft 200 kts 297°
2026-05-09 09:06 38.88462 16.41462 2449 ft 197 kts 285°
2026-05-09 09:06 38.88741 16.39787 2170 ft 192 kts 279°
2026-05-09 09:06 38.88944 16.38118 1927 ft 190 kts 276°
2026-05-09 09:07 38.89127 16.36437 1693 ft 193 kts 275°
2026-05-09 09:07 38.89329 16.34693 1497 ft 198 kts 276°
2026-05-09 09:07 38.89508 16.32972 1216 ft 192 kts 276°
2026-05-09 09:07 38.89711 16.31297 898 ft 184 kts 277°
2026-05-09 09:08 38.89900 16.29765 695 ft 165 kts 276°
2026-05-09 09:08 38.90064 16.28389 433 ft 150 kts 276°
2026-05-09 09:08 38.90212 16.27057 237 ft 151 kts 276°
2026-05-09 09:08 38.90367 16.25726 47 ft 150 kts 275°
2026-05-09 09:09 38.90504 16.24537 32 ft 114 kts 278°
2026-05-09 09:09 38.90599 16.23719 31 ft 67 kts 279°
2026-05-09 09:09 38.90640 16.23377 35 ft 35 kts 278°
2026-05-09 09:09 38.90675 16.23077 35 ft 33 kts 278°
2026-05-09 09:10 38.90764 16.22917 32 ft 23 kts 17°
2026-05-09 09:10 38.90857 16.23073 31 ft 22 kts 72°
2026-05-09 09:10 38.90870 16.23267 31 ft 21 kts 88°
2026-05-09 09:10 38.90854 16.23453 31 ft 21 kts 97°
2026-05-09 09:11 38.90834 16.23635 31 ft 20 kts 99°
2026-05-09 09:11 38.90813 16.23810 31 ft 20 kts 98°
2026-05-09 09:11 38.90793 16.23980 31 ft 19 kts 98°
2026-05-09 09:11 38.90778 16.24144 31 ft 18 kts 83°
2026-05-09 09:12 38.90825 16.24246 31 ft 10 kts 69°
2026-05-09 09:12 38.90824 16.24334 29 ft 10 kts 96°
2026-05-09 09:12 38.90815 16.24413 31 ft 5 kts 92°
2026-05-09 09:12 38.90841 16.24435 31 ft 5 kts 21°
2026-05-09 09:13 38.90862 16.24441 31 ft 3 kts
2026-05-09 09:13 38.90869 16.24442 31 ft 0 kts
2026-05-09 09:14 38.90875 16.24448 29 ft 0 kts 54°